FW6327 Weather Reports


Display with metric or nautical units.
time (UTC)temp
F
wind
direction
speed
MPH
gust
MPH
rain 1hr
in
rain 24hr
in
rain mn
in
humidity
%
barometer
mb
20260901174522 66 28 2.0 11.0 0.00 0.00 0.00 74 1017.1
20260901173023 67 52 3.0 6.0 0.00 0.00 0.00 72 1017.1
20260901171515 67 338 5.0 11.0 0.00 0.00 0.00 73 1017.0
20260901170009 66 104 4.0 9.0 0.00 0.00 0.00 75 1016.9
20260901164506 65 55 3.0 15.0 0.00 0.00 0.00 75 1017.0
20260901163005 64 61 3.0 9.0 0.00 0.00 0.00 78 1017.0
20260901161501 63 113 4.0 9.0 0.00 0.00 0.00 80 1017.1
20260901160108 64 59 6.0 11.0 0.00 0.00 0.00 77 1017.0
20260901154557 64 85 4.0 9.0 0.00 0.00 0.00 76 1016.9
20260901153156 64 94 5.0 11.0 0.00 0.00 0.00 77 1017.0
20260901151557 65 42 8.0 18.0 0.00 0.00 0.00 76 1016.9
20260901150051 66 63 3.0 11.0 0.00 0.00 0.00 72 1016.8
20260901144550 65 67 3.0 6.0 0.00 0.00 0.00 73 1016.8
20260901143100 65 119 2.0 6.0 0.00 0.00 0.00 73 1016.9
20260901141544 65 94 1.0 4.0 0.00 0.00 0.00 73 1016.8
20260901140043 65 217 3.0 8.0 0.00 0.00 0.00 72 1016.7
20260901134539 67 63 5.0 11.0 0.00 0.00 0.00 70 1016.6
20260901133035 66 182 1.0 4.0 0.00 0.00 0.00 76 1016.6
20260901131534 66 176 1.0 3.0 0.00 0.00 0.00 77 1016.6
20260901130027 64 78 0.0 4.0 0.00 0.00 0.00 83 1016.6
20260901124522 63 91 0.0 2.0 0.00 0.00 0.00 85 1016.6
20260901123025 60 92 0.0 3.0 0.00 0.00 0.00 87 1016.5
20260901121511 58 66 0.0 3.0 0.00 0.00 0.00 90 1016.7
20260901120005 57 66 1.0 2.0 0.00 0.00 0.00 93 1016.8
20260901114601 55 66 0.0 0.0 0.00 0.01 0.00 94 1016.7
20260901113104 54 30 0.0 0.0 0.00 0.01 0.00 94 1016.7
20260901111552 52 30 0.0 3.0 0.00 0.01 0.00 94 1016.7
20260901110049 50 30 2.0 3.0 0.00 0.01 0.00 94 1016.7
20260901104555 50 290 0.0 0.0 0.00 0.02 0.00 94 1016.6
20260901103042 49 290 0.0 0.0 0.00 0.02 0.00 94 1016.5
20260901101540 49 290 0.0 0.0 0.00 0.02 0.00 94 1016.5
20260901100046 47 290 0.0 0.0 0.00 0.02 0.00 94 1016.3
20260901094534 47 290 0.0 0.0 0.00 0.02 0.00 94 1016.2
20260901093031 47 290 0.0 0.0 0.00 0.02 0.00 93 1016.0
20260901091529 47 290 0.0 0.0 0.00 0.02 0.00 93 1015.9
20260901090024 48 290 0.0 0.0 0.00 0.02 0.00 93 1015.8
20260901084520 49 271 0.0 0.0 0.00 0.02 0.00 93 1015.7
20260901083020 50 271 0.0 0.0 0.00 0.02 0.00 93 1015.6
20260901081520 50 271 0.0 0.0 0.00 0.02 0.00 94 1015.5
20260901080014 50 271 0.0 0.0 0.00 0.02 0.00 94 1015.4
20260901074510 50 271 0.0 0.0 0.00 0.02 0.00 93 1015.3
20260901073009 51 271 0.0 0.0 0.00 0.02 0.00 94 1015.2
20260901071513 52 271 0.0 0.0 0.00 0.02 0.00 94 1015.2
20260901070003 52 271 0.0 0.0 0.00 0.02 0.00 94 1015.3
20260901064559 51 271 0.0 0.0 0.00 0.02 0.00 94 1015.4
20260901063056 51 271 0.0 0.0 0.00 0.02 0.00 94 1015.3
20260901061555 51 271 0.0 0.0 0.00 0.02 0.00 93 1015.2
20260901060050 50 271 0.0 0.0 0.00 0.02 0.00 93 1015.0
20260901054549 50 271 0.0 0.0 0.00 0.03 0.00 93 1015.2
20260901053047 51 271 0.0 0.0 0.00 0.03 0.00 93 1014.9
20260901051545 51 271 0.0 0.0 0.00 0.03 0.00 93 1014.8
20260901050039 51 271 0.0 0.0 0.00 0.03 0.00 93 1014.8
20260901044547 51 271 0.0 0.0 0.00 0.04 0.00 93 1014.8
20260901043033 51 271 0.0 0.0 0.00 0.04 0.00 93 1014.8
20260901041530 51 271 0.0 0.0 0.00 0.04 0.00 93 1014.8
20260901040034 50 271 0.0 0.0 0.00 0.04 0.00 93 1014.6
20260901034522 50 271 0.0 0.0 0.00 0.04 0.00 92 1014.5
20260901033016 49 271 0.0 0.0 0.00 0.04 0.00 92 1014.4
20260901031513 49 271 0.0 0.0 0.00 0.04 0.00 91 1014.3
20260901030008 49 271 0.0 0.0 0.00 0.04 0.00 91 1014.3
20260901024514 49 271 0.0 0.0 0.00 0.22 0.04 91 1014.1
20260901023002 49 271 0.0 1.0 0.00 0.22 0.04 91 1014.1
20260901021559 50 271 0.0 2.0 0.00 0.22 0.04 91 1014.0
20260901020100 50 271 0.0 1.0 0.00 0.22 0.04 90 1013.9
20260901014553 51 271 0.0 1.0 0.00 0.22 0.04 90 1013.7
20260901013050 52 271 0.0 2.0 0.00 0.22 0.04 90 1013.7
20260901011548 52 271 1.0 2.0 0.00 0.22 0.04 89 1013.8
20260901010042 53 271 0.0 2.0 0.00 0.22 0.04 89 1013.8
20260901004540 53 271 0.0 1.0 0.00 0.22 0.04 89 1013.4
20260901003037 54 271 0.0 2.0 0.00 0.22 0.04 88 1013.4
20260901001530 55 271 0.0 2.0 0.00 0.22 0.04 88 1013.3
20260901000027 55 271 0.0 2.0 0.00 0.22 0.04 87 1013.2
20260831234523 56 258 0.0 3.0 0.00 0.22 0.04 87 1013.1
20260831233020 56 258 2.0 5.0 0.00 0.22 0.04 86 1013.0
20260831231521 57 217 1.0 5.0 0.00 0.22 0.04 85 1012.7
20260831230016 57 232 0.0 4.0 0.00 0.22 0.04 86 1012.7
20260831224513 57 232 2.0 7.0 0.00 0.23 0.04 85 1012.8
20260831223012 58 231 1.0 4.0 0.00 0.23 0.04 84 1012.8
20260831221521 59 221 4.0 7.0 0.00 0.23 0.04 81 1012.6
20260831220007 59 292 3.0 5.0 0.00 0.23 0.04 83 1012.6
20260831214518 60 211 1.0 4.0 0.00 0.31 0.04 83 1012.5
20260831213102 60 169 1.0 5.0 0.00 0.31 0.04 84 1012.5
20260831211601 60 161 2.0 4.0 0.00 0.31 0.04 84 1012.2
20260831210055 59 50 2.0 10.0 0.00 0.31 0.04 84 1012.1
20260831204558 60 165 0.0 6.0 0.00 0.31 0.04 84 1012.1
20260831203052 61 53 3.0 11.0 0.00 0.31 0.04 81 1011.8
20260831201549 61 46 3.0 6.0 0.00 0.31 0.04 80 1011.5
20260831200048 62 132 2.0 9.0 0.00 0.31 0.04 79 1011.4
20260831194641 63 165 2.0 6.0 0.00 0.31 0.04 79 1011.0
20260831193038 62 135 2.0 7.0 0.00 0.31 0.04 81 1010.9
20260831191535 63 66 1.0 9.0 0.00 0.31 0.04 77 1010.8
20260831190044 64 169 4.0 8.0 0.00 0.31 0.04 76 1010.6
20260831184529 63 167 3.0 6.0 0.00 0.31 0.04 80 1010.6
20260831183036 63 44 2.0 6.0 0.00 0.31 0.04 79 1010.4
20260831181524 63 212 3.0 9.0 0.00 0.31 0.04 79 1010.1
20260831180021 63 202 1.0 7.0 0.00 0.31 0.04 78 1010.0